Location: Vlissingen
(51.4500°N, 3.5830°E)
Time: 11:30:20
(UTC+02:00)

Daily predictions for brighter satellites

Satellite Brightness Start Highest point End
(mag) Time Altitude Azimuth Time Altitude Azimuth Time Altitude Azimuth
NOAA 11 4.3 22:44:35 10° SSE 22:50:01 78° ENE 22:55:32 10° NNW
USA 32 4.1 22:46:16 10° N 22:51:34 86° E 22:56:51 10° S
Cosmos 1745 Rocket 4.2 22:46:02 10° S 22:52:05 57° E 22:58:06 10° NNE
ERBS 3.1 22:49:23 10° SSW 22:52:32 32° SE 22:55:41 10° ENE
Cosmos 1470 Rocket 4.0 22:49:07 10° SSE 22:53:13 44° E 22:57:21 10° NNE
USA 234 3.7 22:46:56 10° ENE 22:53:26 69° NNW 22:59:56 10° W
Cosmos 1933 Rocket 4.0 22:49:50 10° SSE 22:54:04 45° E 22:58:20 10° NNE
Cosmos 1937 Rocket 3.5 22:51:56 10° SSW 22:57:06 68° ESE 23:02:16 10° NNE
SPOT 5 3.9 22:54:23 10° S 22:58:55 44° W 23:03:44 10° NNW
Cosmos 990 Rocket 4.1 22:56:43 10° S 23:01:43 55° ESE 23:06:45 10° NNE
Cosmos 1626 2.7 22:59:09 10° SSE 23:02:41 40° E 23:06:14 10° NNE
Cosmos 1271 Rocket 3.6 22:59:19 10° NNW 23:03:03 48° W 23:06:49 10° S
YAOGAN 6 3.4 23:00:25 10° S 23:03:54 47° W 23:07:23 10° NNW
CZ-4B R/B 3.6 23:00:16 10° NNE 23:05:34 74° ESE 23:10:45 10° S
Cosmos 1869 3.4 23:02:47 10° N 23:06:51 68° ENE 23:10:52 10° SSE
SL-08 RB Rocket 3.8 23:05:17 10° SSE 23:09:47 81° WSW 23:14:21 10° NNW
Landsat 7 3.9 23:06:06 10° SSE 23:10:51 78° ENE 23:15:38 10° NNW
Iridium 2 3.7 23:07:41 10° S 23:11:32 82° E 23:15:25 10° N
Cosmos 2227 Rocket 2.3 23:07:36 10° S 23:13:08 59° ESE 23:18:43 10° NE
BREEZE-M DEB (TANK) 3.0 23:15:00 10° WSW 23:16:45 24° SSW 23:18:45 12° SE
SAR-Lupe-2 4.0 23:15:48 11° SE 23:19:05 50° ENE 23:22:35 10° N
Cosmos 2221 Rocket 4.2 23:15:24 10° N 23:19:49 46° ENE 23:23:51 12° SE
NOSS 3-1 (A) 3.7 23:17:19 10° SW 23:23:25 84° NW 23:30:20 10° NE
SeaSat 1 4.0 23:19:45 10° E 23:23:55 28° NE 23:28:07 10° NNW
Cosmos 1703 3.8 23:22:02 10° SSW 23:25:54 61° WNW 23:29:47 10° N
Cosmos 2251 Rocket 4.5 23:20:58 10° NNW 23:25:59 40° NE 23:30:57 10° SE
SL-16 R/B 2.3 23:20:17 10° NNW 23:26:00 86° WSW 23:31:18 12° SSE
Sich 1 4.2 23:22:24 10° SSW 23:26:38 44° WNW 23:30:51 10° N
Terra 1.9 23:22:06 11° SSE 23:26:44 78° ENE 23:31:31 10° NNW
Cosmos 1346 3.1 23:24:44 10° SSW 23:27:46 83° WNW 23:30:49 10° N
ARGOS 3.8 23:22:30 10° S 23:27:47 54° W 23:33:05 10° NNW
Aureole 2 Rocket 3.4 23:25:08 10° N 23:28:03 33° ENE 23:30:53 12° SE
Cosmos 1862 Rocket 3.9 23:25:02 10° NNW 23:29:20 62° W 23:33:35 10° S
CZ-4C R/B 3.3 23:26:12 10° S 23:29:38 63° WSW 23:33:09 10° NNW
Cosmos 2181 Rocket 4.2 23:23:40 10° N 23:30:02 64° ENE 23:36:00 12° SSE
Cosmos 2333 Rocket 3.4 23:26:38 10° NW 23:31:51 36° WSW 23:37:02 10° S
Cosmos 1269 Rocket 4.2 23:27:04 10° NNW 23:32:24 76° WSW 23:37:18 12° SSE
CARTOSAT-1 3.6 23:30:35 11° SSE 23:34:40 86° WSW 23:39:01 10° NNW
Cosmos 1633 Rocket 4.4 23:31:30 10° SW 23:35:36 39° WNW 23:39:43 10° N
Cosmos 2219 Rocket 3.8 23:31:20 10° NW 23:35:54 26° WSW 23:40:27 10° SSW
IGS 5A 3.5 23:32:15 12° SSE 23:36:03 86° ENE 23:40:15 10° NNW
Cosmos 2297 Rocket 2.2 23:33:51 10° SSW 23:39:26 66° ESE 23:45:04 10° NE
FALCON 9 R/B 4.4 23:18:52 10° WSW 23:41:43 35° SSW 23:48:27 13° SE
CZ-4C R/B 3.2 23:37:06 10° NW 23:43:46 62° NE 23:51:16 10° ESE
Cosmos 158 Rocket 4.2 23:38:50 10° NNW 23:44:08 66° ENE 23:48:29 15° SE
Spot 4 3.9 23:39:55 13° SSE 23:44:15 88° ENE 23:49:10 10° NNW
Cosmos 1943 4.5 23:40:02 10° NNW 23:45:13 34° NE 23:50:22 10° ESE
ATLAS 2AS CENTAUR R/B 3.0 23:38:08 10° SSW 23:45:43 70° SE 23:53:50 10° NE
Cosmos 1048 Rocket 4.2 23:41:18 10° NNW 23:46:40 72° WSW 23:51:18 14° SSE
ATLAS 3B R/B 3.1 23:40:36 10° NW 23:47:27 53° WSW 23:53:06 14° SSE
H-2A R/B 2.4 23:42:26 11° S 23:47:40 67° WSW 23:53:08 10° NNW
Tiangong 1 2.8 23:47:52 10° SW 23:49:52 16° S 23:50:06 16° S
Cosmos 1125 Rocket 3.6 23:47:00 10° S 23:52:16 65° ESE 23:57:32 10° NNE
Cosmos 1455 3.7 23:48:56 10° NNW 23:52:21 31° W 23:55:46 10° SSW
